Weather History for Farmington, MO

Change the Weather History Date:

Monday, February 27, 2012

  Actual Average Record
Temperature  
Mean Temperature 50 °F -  
Max Temperature 55 °F 46 °F 69 °F (1999)
Min Temperature 44 °F 29 °F 12 °F (2002)
Degree Days  
Heating Degree Days 16    
Moisture  
Dew Point 27 °F    
Average Humidity 41    
Maximum Humidity 53    
Minimum Humidity 26    
Precipitation  
Precipitation 0.00 in - - ()
Sea Level Pressure  
Sea Level Pressure 30.34 in    
Wind  
Wind Speed 8 mph (NNW)    
Max Wind Speed 14 mph    
Max Gust Speed -    
Visibility 10 miles    
Events      
Averages and records for this station are not official NWS values.
T = Trace of Precipitation, MM = Missing Value Source: NWS Daily Summary

Daily Weather History Graph

Daily Weather History Graph

Search for Another Location

Airport:

Trip Planner

Search our weather history database for the weather conditions in past years. The results will help you decide how hot, cold, wet, or windy it might be!

Date:

Astronomy

Feb. 27, 2012 Rise Set
Actual Time 6:36 AM CST 5:52 PM CST
Civil Twilight 6:10 AM CST 6:19 PM CST
Nautical Twilight 5:39 AM CST 6:49 PM CST
Astronomical Twilight 5:09 AM CST 7:20 PM CST
Moon 9:13 AM CST (2/27) 11:39 PM CST (2/27)
Length of Visible Light 12h 08m
Length of Day
11h 16m
Waxing Crescent, 29% of the Moon is Illuminated
Feb 27
Waxing Crescent
Feb 29
First Quarter
Mar 8
Full
Mar 14
Last Quarter
Mar 22
New

Hourly Weather History & Observations

Time (CST) Temp. Windchill Dew Point Humidity Pressure Visibility Wind Dir Wind Speed Gust Speed Precip Events Conditions
12:15 AM 48.2 °F - 28.4 °F 46% 30.20 in 10.0 mi SSW 9.2 mph - N/A   Clear
12:35 AM 48.2 °F - 28.4 °F 46% 30.20 in 10.0 mi SSW 9.2 mph - N/A   Clear
12:55 AM 48.2 °F - 28.4 °F 46% 30.20 in 10.0 mi SSW 9.2 mph - N/A   Clear
1:15 AM 48.2 °F - 28.4 °F 46% 30.21 in 10.0 mi SSW 10.4 mph - N/A   Clear
1:35 AM 48.2 °F - 28.4 °F 46% 30.21 in 10.0 mi SW 8.1 mph - N/A   Clear
1:55 AM 46.4 °F 44.3 °F 28.4 °F 50% 30.22 in 10.0 mi WSW 4.6 mph - N/A   Clear
2:15 AM 46.4 °F 42.9 °F 28.4 °F 50% 30.21 in 10.0 mi SW 6.9 mph - N/A   Mostly Cloudy
2:35 AM 48.2 °F - 28.4 °F 46% 30.21 in 10.0 mi SW 5.8 mph - N/A   Overcast
2:55 AM 48.2 °F - 28.4 °F 46% 30.21 in 10.0 mi SW 5.8 mph - N/A   Overcast
3:15 AM 48.2 °F - 30.2 °F 50% 30.22 in 10.0 mi WSW 4.6 mph - N/A   Overcast
3:35 AM 48.2 °F - 28.4 °F 46% 30.22 in 10.0 mi WSW 3.5 mph - N/A   Overcast
3:55 AM 48.2 °F - 28.4 °F 46% 30.23 in 10.0 mi West 3.5 mph - N/A   Overcast
4:15 AM 50.0 °F - 28.4 °F 43% 30.24 in 10.0 mi West 5.8 mph - N/A   Overcast
4:35 AM 51.8 °F - 28.4 °F 41% 30.24 in 10.0 mi West 4.6 mph - N/A   Overcast
4:55 AM 51.8 °F - 28.4 °F 41% 30.26 in 10.0 mi West 5.8 mph - N/A   Overcast
5:15 AM 50.0 °F - 28.4 °F 43% 30.26 in 10.0 mi West 4.6 mph - N/A   Scattered Clouds
5:35 AM 48.2 °F - 28.4 °F 46% 30.28 in 10.0 mi West 3.5 mph - N/A   Clear
5:55 AM 48.2 °F - 28.4 °F 46% 30.29 in 10.0 mi WNW 5.8 mph - N/A   Clear
6:15 AM 46.4 °F 42.9 °F 28.4 °F 50% 30.30 in 10.0 mi WNW 6.9 mph - N/A   Clear
6:55 AM 46.4 °F 41.5 °F 28.4 °F 50% 30.33 in 10.0 mi NNW 10.4 mph - N/A   Clear
7:15 AM 44.6 °F 39.2 °F 28.4 °F 53% 30.34 in 10.0 mi North 10.4 mph - N/A   Clear
7:35 AM 44.6 °F 42.2 °F 28.4 °F 53% 30.36 in 10.0 mi North 4.6 mph - N/A   Clear
7:55 AM 44.6 °F 40.7 °F 28.4 °F 53% 30.38 in 10.0 mi North 6.9 mph - N/A   Clear
8:15 AM 46.4 °F 43.5 °F 28.4 °F 50% 30.39 in 10.0 mi North 5.8 mph - N/A   Clear
8:35 AM 46.4 °F 42.4 °F 28.4 °F 50% 30.39 in 10.0 mi NNE 8.1 mph - N/A   Clear
8:55 AM 48.2 °F - 28.4 °F 46% 30.40 in 10.0 mi NNW 11.5 mph - N/A   Clear
9:15 AM 48.2 °F - 28.4 °F 46% 30.41 in 10.0 mi North 8.1 mph - N/A   Clear
9:35 AM 48.2 °F - 28.4 °F 46% 30.42 in 10.0 mi NNE 9.2 mph - N/A   Clear
9:55 AM 48.2 °F - 28.4 °F 46% 30.42 in 10.0 mi North 6.9 mph - N/A   Clear
10:15 AM 50.0 °F - 28.4 °F 43% 30.42 in 10.0 mi NE 9.2 mph - N/A   Clear
10:35 AM 50.0 °F - 30.2 °F 47% 30.43 in 10.0 mi North 6.9 mph - N/A   Clear
10:55 AM 51.8 °F - 30.2 °F 44% 30.43 in 10.0 mi North 8.1 mph - N/A   Clear
11:15 AM 51.8 °F - 30.2 °F 44% 30.43 in 10.0 mi North 8.1 mph - N/A   Clear
11:35 AM 51.8 °F - 28.4 °F 41% 30.43 in 10.0 mi North 9.2 mph - N/A   Clear
11:55 AM 53.6 °F - 28.4 °F 38% 30.42 in 10.0 mi NNW 10.4 mph - N/A   Clear
12:15 PM 53.6 °F - 26.6 °F 35% 30.42 in 10.0 mi NW 11.5 mph - N/A   Clear
12:35 PM 53.6 °F - 26.6 °F 35% 30.40 in 10.0 mi NW 13.8 mph - N/A   Clear
12:55 PM 55.4 °F - 24.8 °F 31% 30.40 in 10.0 mi NNW 10.4 mph - N/A   Clear
1:15 PM 55.4 °F - 26.6 °F 33% 30.40 in 10.0 mi North 8.1 mph - N/A   Clear
1:35 PM 55.4 °F - 26.6 °F 33% 30.39 in 10.0 mi NNW 5.8 mph - N/A   Clear
1:55 PM 55.4 °F - 24.8 °F 31% 30.40 in 10.0 mi North 4.6 mph - N/A   Clear
2:15 PM 55.4 °F - 24.8 °F 31% 30.39 in 10.0 mi NE 6.9 mph - N/A   Clear
2:35 PM 55.4 °F - 23.0 °F 29% 30.39 in 10.0 mi NE 6.9 mph - N/A   Clear
2:55 PM 55.4 °F - 23.0 °F 29% 30.39 in 10.0 mi Calm Calm - N/A   Clear
3:15 PM 55.4 °F - 24.8 °F 31% 30.39 in 10.0 mi NNW 3.5 mph - N/A   Clear
3:35 PM 55.4 °F - 21.2 °F 26% 30.39 in 10.0 mi North 6.9 mph - N/A   Clear
3:55 PM 55.4 °F - 23.0 °F 29% 30.39 in 10.0 mi NNE 5.8 mph - N/A   Clear
4:15 PM 53.6 °F - 23.0 °F 30% 30.39 in 10.0 mi NNE 5.8 mph - N/A   Partly Cloudy
4:35 PM 55.4 °F - 21.2 °F 26% 30.40 in 10.0 mi North 6.9 mph - N/A   Partly Cloudy
4:55 PM 53.6 °F - 19.4 °F 26% 30.40 in 10.0 mi North 8.1 mph - N/A   Partly Cloudy
5:15 PM 53.6 °F - 21.2 °F 28% 30.40 in 10.0 mi North 8.1 mph - N/A   Clear
5:35 PM 51.8 °F - 23.0 °F 33% 30.40 in 10.0 mi NE 9.2 mph - N/A   Clear
5:55 PM 51.8 °F - 21.2 °F 30% 30.41 in 10.0 mi NE 10.4 mph - N/A   Clear
6:15 PM 48.2 °F - 21.2 °F 34% 30.41 in 10.0 mi NE 9.2 mph - N/A   Clear
6:35 PM 48.2 °F - 19.4 °F 32% 30.41 in 10.0 mi ENE 9.2 mph - N/A   Clear
6:55 PM 46.4 °F 43.5 °F 19.4 °F 34% 30.41 in 10.0 mi ENE 5.8 mph - N/A   Scattered Clouds
7:15 PM 44.6 °F 39.7 °F 21.2 °F 39% 30.41 in 10.0 mi ENE 9.2 mph - N/A   Overcast
7:35 PM 44.6 °F 40.2 °F 21.2 °F 39% 30.41 in 10.0 mi NE 8.1 mph - N/A   Mostly Cloudy
7:55 PM 42.8 °F 38.6 °F 21.2 °F 42% 30.41 in 10.0 mi ENE 6.9 mph - N/A   Scattered Clouds
8:15 PM 41.0 °F 36.4 °F 21.2 °F 45% 30.41 in 10.0 mi ENE 6.9 mph - N/A   Clear
8:35 PM 41.0 °F 37.1 °F 21.2 °F 45% 30.41 in 10.0 mi ENE 5.8 mph - N/A   Clear
8:55 PM 39.2 °F 33.6 °F 19.4 °F 45% 30.42 in 10.0 mi ENE 8.1 mph - N/A   Clear
9:15 PM 39.2 °F 33.6 °F 21.2 °F 49% 30.43 in 10.0 mi ENE 8.1 mph - N/A   Clear
9:35 PM 37.4 °F 32.1 °F 21.2 °F 52% 30.43 in 10.0 mi East 6.9 mph - N/A   Clear
9:55 PM 37.4 °F 32.8 °F 19.4 °F 48% 30.42 in 10.0 mi East 5.8 mph - N/A   Clear
10:15 PM 37.4 °F 33.8 °F 21.2 °F 52% 30.42 in 10.0 mi East 4.6 mph - N/A   Clear
10:35 PM 37.4 °F 34.9 °F 21.2 °F 52% 30.41 in 10.0 mi East 3.5 mph - N/A   Clear
10:55 PM 37.4 °F 34.9 °F 19.4 °F 48% 30.41 in 10.0 mi East 3.5 mph - N/A   Clear
11:15 PM 35.6 °F 32.8 °F 19.4 °F 52% 30.40 in 10.0 mi East 3.5 mph - N/A   Clear
11:35 PM 35.6 °F 31.7 °F 19.4 °F 52% 30.39 in 10.0 mi East 4.6 mph - N/A   Clear
11:55 PM 33.8 °F 29.6 °F 21.2 °F 60% 30.38 in 10.0 mi ENE 4.6 mph - N/A   Clear